DW5624 Weather Reports


Display with metric or nautical units.
time (UTC)temp
F
wind
direction
speed
MPH
gust
MPH
rain 1hr
in
rain 24hr
in
rain mn
in
humidity
%
barometer
mb
20260510030904 80 62 7.0 10.0 0.00 0.00 0.00 85 1010.1
20260510025905 80 40 6.0 12.0 0.00 0.00 0.00 84 1010.0
20260510025404 80 56 6.0 13.0 0.00 0.00 0.00 84 1009.9
20260510022904 81 50 5.0 9.0 0.00 0.00 0.00 78 1009.1
20260510022404 81 72 5.0 12.0 0.00 0.00 0.00 77 1009.0
20260510020904 81 63 5.0 9.0 0.00 0.00 0.00 76 1008.3
20260510020404 81 74 3.0 6.0 0.00 0.00 0.00 76 1008.3
20260510015905 82 88 4.0 10.0 0.00 0.00 0.00 75 1008.2
20260510013905 82 99 4.0 10.0 0.00 0.00 0.00 73 1007.4
20260510013404 82 107 5.0 9.0 0.00 0.00 0.00 73 1007.4
20260510011904 83 126 5.0 10.0 0.00 0.00 0.00 70 1007.3
20260510011404 83 99 3.0 8.0 0.00 0.00 0.00 69 1007.2
20260510010404 84 132 5.0 12.0 0.00 0.00 0.00 66 1006.5
20260510005904 84 116 6.0 9.0 0.00 0.00 0.00 65 1006.5
20260510004904 84 119 5.0 8.0 0.00 0.00 0.00 62 1007.0
20260510004404 85 144 3.0 8.0 0.00 0.00 0.00 61 1007.0
20260510003405 85 119 5.0 12.0 0.00 0.00 0.00 61 1006.7
20260510001404 86 167 3.0 8.0 0.00 0.00 0.00 64 1006.7
20260509235904 87 117 5.0 9.0 0.00 0.00 0.00 64 1006.2
20260509234405 88 166 3.0 5.0 0.00 0.00 0.00 62 1006.2
20260509233904 89 165 2.0 6.0 0.00 0.00 0.00 61 1006.3
20260509232904 90 157 3.0 6.0 0.00 0.00 0.00 61 1006.1
20260509232404 90 171 3.0 6.0 0.00 0.00 0.00 59 1006.1
20260509231904 91 182 3.0 6.0 0.00 0.00 0.00 59 1006.1
20260509225904 92 128 3.0 7.0 0.00 0.00 0.00 60 1006.2
20260509225404 92 117 2.0 7.0 0.00 0.00 0.00 60 1006.1
20260509224904 92 119 3.0 6.0 0.00 0.00 0.00 61 1006.0
20260509224404 92 116 3.0 7.0 0.00 0.00 0.00 60 1006.0
20260509223905 92 114 2.0 8.0 0.00 0.00 0.00 61 1005.9
20260509223404 92 172 4.0 8.0 0.00 0.00 0.00 59 1005.9
20260509221904 92 145 3.0 6.0 0.00 0.00 0.00 58 1005.9
20260509221404 92 201 0.0 3.0 0.00 0.00 0.00 58 1005.9
20260509220405 93 172 3.0 6.0 0.00 0.00 0.00 57 1006.0
20260509215904 93 260 1.0 3.0 0.00 0.00 0.00 56 1005.9
20260509215404 93 41 3.0 7.0 0.00 0.00 0.00 57 1005.9
20260509214904 93 110 3.0 8.0 0.00 0.00 0.00 58 1005.9
20260509213904 95 119 2.0 5.0 0.00 0.00 0.00 55 1005.9
20260509213404 95 119 2.0 6.0 0.00 0.00 0.00 53 1005.9
20260509212904 95 158 2.0 5.0 0.00 0.00 0.00 54 1005.9
20260509212404 95 139 2.0 5.0 0.00 0.00 0.00 54 1005.8
20260509211904 95 203 1.0 2.0 0.00 0.00 0.00 55 1005.8
20260509211404 95 300 2.0 5.0 0.00 0.00 0.00 52 1005.8
20260509210404 95 182 1.0 3.0 0.00 0.00 0.00 57 1005.9
20260509205404 95 244 2.0 3.0 0.00 0.00 0.00 57 1006.2
20260509204905 94 117 1.0 5.0 0.00 0.00 0.00 60 1006.1
20260509202904 93 251 1.0 5.0 0.00 0.00 0.00 56 1006.4
20260509202404 94 241 1.0 5.0 0.00 0.00 0.00 56 1006.4
20260509201404 93 146 1.0 3.0 0.00 0.00 0.00 59 1006.5
20260509200904 93 64 1.0 3.0 0.00 0.00 0.00 64 1006.5
20260509195904 92 201 1.0 3.0 0.00 0.00 0.00 62 1006.7
20260509194404 91 258 0.0 3.0 0.00 0.00 0.00 63 1006.7
20260509193403 91 296 2.0 6.0 0.00 0.00 0.00 62 1006.8
20260509185904 90 206 1.0 3.0 0.00 0.00 0.00 70 1007.0
20260509184904 90 203 1.0 5.0 0.00 0.00 0.00 69 1007.2
20260509182904 89 96 2.0 7.0 0.00 0.00 0.00 76 1007.5
20260509181404 88 160 2.0 6.0 0.00 0.00 0.00 75 1007.8
20260509180904 87 165 3.0 7.0 0.00 0.00 0.00 78 1007.9
20260509175404 86 179 1.0 5.0 0.00 0.00 0.00 80 1008.4
20260509174904 85 187 2.0 6.0 0.00 0.00 0.00 79 1008.4
20260509174404 85 185 2.0 6.0 0.00 0.00 0.00 83 1008.6
20260509173404 83 229 0.0 3.0 0.00 0.00 0.00 80 1008.7
20260509172403 83 203 1.0 3.0 0.00 0.00 0.00 81 1008.7
20260509171904 83 204 1.0 3.0 0.00 0.00 0.00 81 1008.8
20260509171404 83 192 1.0 6.0 0.00 0.00 0.00 82 1008.7
20260509170404 83 172 1.0 3.0 0.00 0.00 0.00 82 1008.9
20260509164904 83 178 3.0 7.0 0.00 0.00 0.00 85 1008.9
20260509163904 83 236 1.0 5.0 0.00 0.00 0.00 84 1008.9
20260509163404 83 223 0.0 0.0 0.00 0.00 0.00 84 1008.8
20260509162904 83 254 0.0 3.0 0.00 0.00 0.00 84 1008.7
20260509161903 83 211 1.0 2.0 0.00 0.00 0.00 84 1008.6
20260509161404 83 173 1.0 5.0 0.00 0.00 0.00 84 1008.7
20260509155903 83 304 0.0 2.0 0.00 0.00 0.00 87 1008.6
20260509155405 82 194 1.0 3.0 0.00 0.00 0.00 88 1008.6
20260509153904 81 296 0.0 0.0 0.00 0.00 0.00 91 1008.8
20260509153404 81 39 0.0 3.0 0.00 0.00 0.00 92 1008.4
20260509152404 80 108 2.0 5.0 0.00 0.00 0.00 93 1008.2
20260509150904 79 111 1.0 3.0 0.00 0.00 0.00 94 1008.3
20260509145903 78 111 2.0 6.0 0.00 0.00 0.00 94 1008.2
20260509145404 78 114 2.0 6.0 0.00 0.00 0.00 94 1008.2
20260509144904 78 74 4.0 7.0 0.00 0.00 0.00 95 1008.4
20260509144404 78 59 2.0 5.0 0.00 0.00 0.00 95 1008.4
20260509142904 78 115 2.0 5.0 0.00 0.00 0.00 95 1008.3
20260509142403 78 114 2.0 5.0 0.00 0.00 0.00 96 1008.3
20260509141904 78 116 3.0 6.0 0.00 0.00 0.00 96 1008.3
20260509141404 78 148 1.0 3.0 0.00 0.00 0.00 96 1008.4
20260509140905 78 127 1.0 3.0 0.00 0.00 0.00 96 1008.2
20260509134405 77 226 1.0 3.0 0.00 0.00 0.00 97 1008.7
20260509133906 77 218 0.0 3.0 0.00 0.00 0.00 97 1008.7
20260509132906 77 184 0.0 1.0 0.00 0.00 0.00 97 1008.6
20260509131905 77 184 0.0 3.0 0.00 0.00 0.00 97 1008.7
20260509130905 77 182 2.0 6.0 0.00 0.00 0.00 97 1008.7
20260509124405 76 45 1.0 5.0 0.00 0.00 0.00 97 1008.7
20260509123406 76 183 1.0 2.0 0.00 0.00 0.00 97 1008.7
20260509121905 76 241 0.0 1.0 0.00 0.00 0.00 97 1008.4
20260509121406 76 65 0.0 0.0 0.00 0.00 0.00 97 1008.3
20260509120905 76 65 0.0 0.0 0.00 0.00 0.00 97 1008.2
20260509115905 76 58 0.0 1.0 0.00 0.00 0.00 97 1008.4
20260509114905 76 268 0.0 1.0 0.00 0.00 0.00 97 1008.4
20260509112906 76 203 0.0 0.0 0.00 0.00 0.00 97 1008.4
20260509112405 76 203 0.0 0.0 0.00 0.00 0.00 96 1008.3
20260509111906 76 203 0.0 0.0 0.00 0.00 0.00 96 1008.2
20260509110906 76 298 0.0 0.0 0.00 0.00 0.00 96 1008.1
20260509110406 76 80 0.0 0.0 0.00 0.00 0.00 96 1007.9
20260509105906 76 80 0.0 0.0 0.00 0.00 0.00 96 1007.7
20260509103905 76 80 0.0 0.0 0.00 0.00 0.00 96 1007.9
20260509102905 76 80 0.0 0.0 0.00 0.00 0.00 96 1008.0
20260509100905 76 80 0.0 0.0 0.00 0.00 0.00 96 1007.9
20260509095405 76 80 0.0 0.0 0.00 0.00 0.00 96 1007.7
20260509094906 76 80 0.0 0.0 0.00 0.00 0.00 96 1007.6
20260509092906 76 80 0.0 0.0 0.00 0.00 0.00 96 1007.5
20260509085405 75 76 0.0 1.0 0.00 0.00 0.00 96 1007.3
20260509084905 75 106 0.0 0.0 0.00 0.00 0.00 96 1007.3
20260509084405 75 109 0.0 1.0 0.00 0.00 0.00 95 1007.4
20260509083905 75 113 0.0 0.0 0.00 0.00 0.00 95 1007.6
20260509081905 74 113 0.0 0.0 0.00 0.00 0.00 95 1007.4
20260509081406 74 113 0.0 0.0 0.00 0.00 0.00 95 1007.5
20260509080905 74 113 0.0 0.0 0.00 0.00 0.00 95 1007.4
20260509073905 75 113 0.0 0.0 0.00 0.00 0.00 95 1008.0
20260509073405 75 113 0.0 0.0 0.00 0.00 0.00 95 1008.0
20260509072905 75 113 0.0 0.0 0.00 0.00 0.00 95 1008.2
20260509064905 76 113 0.0 0.0 0.00 0.00 0.00 95 1007.9
20260509063905 76 113 0.0 2.0 0.00 0.00 0.00 95 1007.9
20260509061906 76 114 1.0 2.0 0.00 0.00 0.00 94 1008.3
20260509060405 76 114 1.0 3.0 0.00 0.00 0.00 95 1008.2
20260509055906 76 58 1.0 5.0 0.00 0.00 0.00 95 1008.2
20260509054405 77 117 4.0 7.0 0.00 0.00 0.00 95 1008.3
20260509053905 77 93 1.0 7.0 0.00 0.00 0.00 95 1008.3
20260509053406 77 102 3.0 8.0 0.00 0.00 0.00 95 1008.4
20260509052905 77 111 2.0 6.0 0.00 0.00 0.00 95 1008.4
20260509052405 77 118 2.0 5.0 0.00 0.00 0.00 95 1008.4
20260509051905 77 123 3.0 7.0 0.00 0.00 0.00 95 1008.4
20260509051405 76 92 3.0 5.0 0.00 0.00 0.00 95 1008.3
20260509050905 76 108 2.0 5.0 0.00 0.00 0.00 95 1008.4
20260509045905 76 62 2.0 3.0 0.00 0.00 0.00 94 1008.6
20260509043405 76 71 0.0 1.0 0.00 0.00 0.00 94 1008.6
20260509041905 76 68 3.0 5.0 0.00 0.00 0.00 94 1008.5
20260509035905 76 56 1.0 3.0 0.00 0.00 0.00 94 1008.5
20260509033905 76 61 5.0 7.0 0.00 0.00 0.00 94 1007.9
20260509033406 76 55 3.0 6.0 0.00 0.00 0.00 94 1008.0
20260509032406 76 32 2.0 5.0 0.00 0.00 0.00 94 1008.1